Weather History for Liberal, KS

Change the Weather History Date:

Wednesday, May 8, 2013

  Actual Average Record
Temperature  
Mean Temperature 69 °F -  
Max Temperature 87 °F 77 °F 101 °F (1963)
Min Temperature 51 °F 49 °F 37 °F (1984)
Cooling Degree Days 4    
Growing Degree Days 19 (Base 50)    
Moisture  
Dew Point 41 °F    
Average Humidity 42    
Maximum Humidity 67    
Minimum Humidity 12    
Precipitation  
Precipitation 0.00 in - - ()
Sea Level Pressure  
Sea Level Pressure 29.87 in    
Wind  
Wind Speed 15 mph (SE)    
Max Wind Speed 32 mph    
Max Gust Speed 48 mph    
Visibility 10 miles    
Events Thunderstorm    
Averages and records for this station are not official NWS values.
T = Trace of Precipitation, MM = Missing Value Source: NWS Daily Summary

Daily Weather History Graph

Daily Weather History Graph

Search for Another Location

Airport:

Trip Planner

Search our weather history database for the weather conditions in past years. The results will help you decide how hot, cold, wet, or windy it might be!

Date:

Astronomy

May. 08, 2013 Rise Set
Actual Time 6:41 AM CDT 8:39 PM CDT
Civil Twilight 6:13 AM CDT 9:07 PM CDT
Nautical Twilight 5:38 AM CDT 9:42 PM CDT
Astronomical Twilight 5:01 AM CDT 10:20 PM CDT
Moon 5:49 AM CDT (5/8) 7:40 PM CDT (5/8)
Length of Visible Light 14h 54m
Length of Day
13h 57m
Waning Crescent, 2% of the Moon is Illuminated
May 8
Waning Crescent
May 9
New
May 17
First Quarter
May 24
Full
May 31
Last Quarter

Hourly Weather History & Observations

Time (CDT) Temp. Dew Point Humidity Pressure Visibility Wind Dir Wind Speed Gust Speed Precip Events Conditions
12:15 AM 69.8 °F 37.4 °F 31% 29.84 in 10.0 mi South 24.2 mph 32.2 mph N/A   Scattered Clouds
12:35 AM 71.6 °F 41.0 °F 33% 29.85 in 10.0 mi South 26.5 mph 33.4 mph N/A   Mostly Cloudy
12:55 AM 71.6 °F 42.8 °F 35% 29.85 in 10.0 mi SE 13.8 mph - N/A   Scattered Clouds
1:15 AM 69.8 °F 42.8 °F 38% 29.85 in 10.0 mi SSE 15.0 mph 24.2 mph N/A   Mostly Cloudy
1:35 AM 69.8 °F 42.8 °F 38% 29.85 in 10.0 mi South 21.9 mph - N/A   Partly Cloudy
1:55 AM 69.8 °F 42.8 °F 38% 29.86 in 10.0 mi South 16.1 mph - N/A   Clear
2:15 AM 66.2 °F 42.8 °F 43% 29.88 in 10.0 mi SSW 9.2 mph - N/A   Scattered Clouds
2:35 AM 64.4 °F 42.8 °F 45% 29.88 in 10.0 mi SW 6.9 mph - N/A Thunderstorm Scattered Clouds
2:55 AM 64.4 °F 42.8 °F 45% 29.90 in 10.0 mi NW 9.2 mph - N/A Thunderstorm Thunderstorm
3:15 AM 66.2 °F 44.6 °F 46% 29.90 in 10.0 mi NNE 4.6 mph - N/A Thunderstorm Overcast
3:35 AM 66.2 °F 42.8 °F 43% 29.88 in 10.0 mi East 5.8 mph - N/A   Mostly Cloudy
3:55 AM 64.4 °F 42.8 °F 45% 29.88 in 10.0 mi East 4.6 mph - N/A   Partly Cloudy
4:15 AM 62.6 °F 42.8 °F 48% 29.88 in 10.0 mi SE 4.6 mph - N/A   Clear
4:35 AM 60.8 °F 42.8 °F 52% 29.88 in 10.0 mi ENE 5.8 mph - N/A   Clear
4:55 AM 59.0 °F 41.0 °F 51% 29.89 in 10.0 mi NNE 6.9 mph - N/A   Clear
5:15 AM 57.2 °F 41.0 °F 55% 29.89 in 10.0 mi Calm Calm - N/A   Clear
5:35 AM 57.2 °F 42.8 °F 59% 29.88 in 10.0 mi ESE 8.1 mph - N/A   Clear
5:55 AM 55.4 °F 41.0 °F 58% 29.89 in 10.0 mi Calm Calm - N/A   Clear
6:15 AM 55.4 °F 41.0 °F 58% 29.88 in 10.0 mi SE 9.2 mph - N/A   Clear
6:35 AM 55.4 °F 41.0 °F 58% 29.88 in 10.0 mi SE 4.6 mph - N/A   Clear
6:55 AM 51.8 °F 39.2 °F 62% 29.87 in 10.0 mi SSE 8.1 mph - N/A   Clear
7:15 AM 53.6 °F 41.0 °F 62% 29.89 in 10.0 mi SSE 3.5 mph - N/A   Clear
7:35 AM 55.4 °F 42.8 °F 63% 29.89 in 10.0 mi SSE 8.1 mph - N/A   Clear
7:55 AM 57.2 °F 42.8 °F 59% 29.89 in 10.0 mi SE 9.2 mph - N/A   Clear
8:15 AM 60.8 °F 44.6 °F 55% 29.90 in 10.0 mi ESE 11.5 mph - N/A   Clear
8:35 AM 60.8 °F 44.6 °F 55% 29.90 in 10.0 mi ESE 15.0 mph - N/A   Clear
8:55 AM 62.6 °F 46.4 °F 55% 29.89 in 10.0 mi SE 17.3 mph - N/A   Clear
9:15 AM 64.4 °F 46.4 °F 52% 29.89 in 10.0 mi SE 16.1 mph - N/A   Clear
9:35 AM 66.2 °F 46.4 °F 49% 29.90 in 10.0 mi SE 15.0 mph 21.9 mph N/A   Clear
9:55 AM 66.2 °F 46.4 °F 49% 29.90 in 10.0 mi SE 16.1 mph 24.2 mph N/A   Clear
10:15 AM 69.8 °F 46.4 °F 43% 29.90 in 10.0 mi SSE 12.7 mph 20.7 mph N/A   Clear
10:35 AM 69.8 °F 46.4 °F 43% 29.90 in 10.0 mi SE 12.7 mph 19.6 mph N/A   Clear
10:55 AM 71.6 °F 46.4 °F 41% 29.90 in 10.0 mi SE 11.5 mph 18.4 mph N/A   Clear
11:15 AM 71.6 °F 46.4 °F 41% 29.90 in 10.0 mi SE 10.4 mph 16.1 mph N/A   Clear
11:35 AM 73.4 °F 46.4 °F 38% 29.90 in 10.0 mi SE 11.5 mph 17.3 mph N/A   Clear
11:55 AM 73.4 °F 46.4 °F 38% 29.89 in 10.0 mi SE 13.8 mph 17.3 mph N/A   Clear
12:15 PM 75.2 °F 46.4 °F 36% 29.88 in 10.0 mi SE 12.7 mph 17.3 mph N/A   Clear
12:35 PM 77.0 °F 46.4 °F 34% 29.88 in 10.0 mi SE 11.5 mph - N/A   Clear
12:55 PM 78.8 °F 46.4 °F 32% 29.87 in 10.0 mi SSE 6.9 mph 18.4 mph N/A   Clear
1:15 PM 78.8 °F 46.4 °F 32% 29.86 in 10.0 mi SE 13.8 mph 18.4 mph N/A   Clear
1:35 PM 80.6 °F 44.6 °F 28% 29.86 in 10.0 mi South 12.7 mph 19.6 mph N/A   Clear
1:55 PM 80.6 °F 44.6 °F 28% 29.85 in 10.0 mi SSE 13.8 mph 17.3 mph N/A   Clear
2:15 PM 82.4 °F 44.6 °F 26% 29.85 in 10.0 mi South 10.4 mph 21.9 mph N/A   Clear
2:35 PM 82.4 °F 44.6 °F 26% 29.83 in 10.0 mi SSE 19.6 mph 23.0 mph N/A   Clear
2:55 PM 84.2 °F 42.8 °F 23% 29.83 in 10.0 mi South 18.4 mph 24.2 mph N/A   Clear
3:35 PM 86.0 °F 37.4 °F 18% 29.81 in 10.0 mi South 19.6 mph 26.5 mph N/A   Clear
3:55 PM 87.8 °F 35.6 °F 16% 29.79 in 10.0 mi SSW 20.7 mph 24.2 mph N/A   Clear
4:15 PM 87.8 °F 35.6 °F 16% 29.78 in 10.0 mi SW 20.7 mph 29.9 mph N/A   Clear
4:35 PM 87.8 °F 32.0 °F 14% 29.77 in 10.0 mi SSW 24.2 mph 32.2 mph N/A   Clear
4:55 PM 87.8 °F 28.4 °F 12% 29.77 in 10.0 mi South 23.0 mph 28.8 mph N/A   Clear
5:15 PM 87.8 °F 28.4 °F 12% 29.76 in 10.0 mi SW 16.1 mph 27.6 mph N/A   Clear
5:35 PM 84.2 °F 26.6 °F 12% 29.77 in 10.0 mi SW 20.7 mph 26.5 mph N/A   Clear
5:55 PM 82.4 °F 24.8 °F 12% 29.77 in 10.0 mi SW 26.5 mph - N/A   Clear
6:15 PM 73.4 °F 28.4 °F 19% 29.81 in 1.8 mi WNW 32.2 mph 48.3 mph N/A   Mostly Cloudy
6:35 PM 71.6 °F 39.2 °F 31% 29.78 in 6.0 mi NW 31.1 mph 38.0 mph N/A   Partly Cloudy
6:55 PM 71.6 °F 41.0 °F 33% 29.77 in 10.0 mi NW 19.6 mph 26.5 mph N/A   Clear
7:15 PM 73.4 °F 41.0 °F 31% 29.79 in 10.0 mi NNW 20.7 mph 26.5 mph N/A   Clear
7:35 PM 69.8 °F 39.2 °F 33% 29.82 in 7.0 mi North 15.0 mph 31.1 mph N/A   Clear
7:55 PM 66.2 °F 41.0 °F 40% 29.85 in 10.0 mi North 20.7 mph - N/A   Clear
8:15 PM 64.4 °F 41.0 °F 42% 29.87 in 10.0 mi NNW 24.2 mph 29.9 mph N/A   Clear
8:35 PM 62.6 °F 39.2 °F 42% 29.88 in 10.0 mi North 26.5 mph 33.4 mph N/A   Clear
8:55 PM 60.8 °F 39.2 °F 45% 29.88 in 10.0 mi North 20.7 mph - N/A   Clear
9:15 PM 59.0 °F 39.2 °F 48% 29.88 in 10.0 mi North 21.9 mph - N/A   Clear
9:35 PM 57.2 °F 41.0 °F 55% 29.90 in 10.0 mi North 15.0 mph - N/A   Clear
9:55 PM 57.2 °F 41.0 °F 55% 29.91 in 10.0 mi North 11.5 mph - N/A   Clear
10:15 PM 57.2 °F 42.8 °F 59% 29.94 in 10.0 mi NNE 11.5 mph - N/A   Clear
10:35 PM 57.2 °F 42.8 °F 59% 29.96 in 10.0 mi NNE 12.7 mph - N/A   Clear
10:55 PM 55.4 °F 42.8 °F 63% 29.95 in 10.0 mi North 13.8 mph - N/A   Clear
11:15 PM 55.4 °F 42.8 °F 63% 29.95 in 10.0 mi North 13.8 mph - N/A   Clear
11:35 PM 53.6 °F 42.8 °F 67% 29.95 in 10.0 mi NNE 9.2 mph - N/A   Clear
11:55 PM 53.6 °F 42.8 °F 67% 29.96 in 10.0 mi NE 9.2 mph - N/A   Clear